Weather History for Glasgow, United Kingdom

Change the Weather History Date:

Wednesday, June 25, 2014

  Actual Average Record
Temperature  
Mean Temperature 56 °F -  
Max Temperature 60 °F 64 °F 75 °F (2003)
Min Temperature 51 °F 49 °F 41 °F (2013)
Degree Days  
Heating Degree Days 10    
Growing Degree Days 6 (Base 50)    
Moisture  
Dew Point 53 °F    
Average Humidity 87    
Maximum Humidity 100    
Minimum Humidity 77    
Precipitation  
Precipitation 0.00 in - - ()
Sea Level Pressure  
Sea Level Pressure 30.09 in    
Wind  
Wind Speed 5 mph ()    
Max Wind Speed 10 mph    
Max Gust Speed 20 mph    
Visibility 5.9 miles    
Events Rain    
Averages and records for this station are not official NWS values.
T = Trace of Precipitation, MM = Missing Value Source: Averaged Metar Reports

Daily Weather History Graph

Daily Weather History Graph

Search for Another Location

Airport:

Trip Planner

Search our weather history database for the weather conditions in past years. The results will help you decide how hot, cold, wet, or windy it might be!

Date:

Astronomy

Jun. 25, 2014 Rise Set
Actual Time 4:33 AM BST 10:07 PM BST
Civil Twilight 3:31 AM BST 11:09 PM BST
Nautical Twilight 1:52 AM BST 12:48 AM BST
Astronomical Twilight Sun does not rise Sun does not rise
Moon 3:36 AM BST (6/25) 8:06 PM BST (6/25)
Length of Visible Light 19h 37m
Length of Day
17h 34m
Waning Crescent, 3% of the Moon is Illuminated
Jun 25
Waning Crescent
Jun 27
New
Jul 5
First Quarter
Jul 12
Full
Jul 19
Last Quarter

Hourly Weather History & Observations

Time (BST) Temp. Dew Point Humidity Pressure Visibility Wind Dir Wind Speed Gust Speed Precip Events Conditions
12:20 AM 55.4 °F 51.8 °F 88% 30.15 in 6.2 mi East 5.8 mph - N/A   Mostly Cloudy
12:50 AM 55.4 °F 51.8 °F 88% 30.15 in 6.2 mi ENE 6.9 mph - N/A   Light Drizzle
1:20 AM 53.6 °F 51.8 °F 94% 30.15 in 6.2 mi East 5.8 mph - N/A   Light Drizzle
1:50 AM 53.6 °F 51.8 °F 94% 30.15 in 3.7 mi ENE 5.8 mph - N/A   Heavy Drizzle
2:20 AM 53.6 °F 51.8 °F 94% 30.12 in - ENE 6.9 mph - N/A Rain Light Rain
2:50 AM 53.6 °F 51.8 °F 94% 30.12 in 6.2 mi ENE 6.9 mph - N/A   Overcast
3:20 AM 53.6 °F 51.8 °F 94% 30.12 in 6.2 mi ENE 4.6 mph - N/A   Mostly Cloudy
3:50 AM 53.6 °F 51.8 °F 94% 30.12 in 4.3 mi ENE 5.8 mph - N/A Rain Light Rain
4:20 AM 53.6 °F 51.8 °F 94% 30.12 in 3.7 mi East 5.8 mph - N/A Rain Light Rain
4:50 AM 53.6 °F 51.8 °F 94% 30.12 in 4.3 mi ENE 5.8 mph - N/A Rain Light Rain
5:20 AM 51.8 °F 51.8 °F 100% 30.12 in 4.3 mi NE 5.8 mph - N/A Rain Light Rain
5:50 AM 51.8 °F 51.8 °F 100% 30.12 in 5.6 mi ENE 5.8 mph - N/A   Overcast
6:20 AM 53.6 °F 51.8 °F 94% 30.12 in 5.6 mi East 4.6 mph - N/A   Mostly Cloudy
6:50 AM 53.6 °F 51.8 °F 94% 30.09 in 5.6 mi NE 4.6 mph - N/A Rain Light Rain
7:20 AM 53.6 °F 51.8 °F 94% 30.09 in 6.2 mi ENE 6.9 mph - N/A Rain Light Rain
7:50 AM 53.6 °F 51.8 °F 94% 30.09 in 6.2 mi ENE 5.8 mph - N/A Rain Light Rain
8:20 AM 55.4 °F 51.8 °F 88% 30.09 in 6.2 mi ENE 6.9 mph - N/A   Mostly Cloudy
8:50 AM 55.4 °F 51.8 °F 88% 30.09 in 6.2 mi NE 5.8 mph - N/A   Mostly Cloudy
9:20 AM 55.4 °F 51.8 °F 88% 30.09 in 6.2 mi ENE 6.9 mph - N/A   Mostly Cloudy
9:50 AM 57.2 °F 51.8 °F 82% 30.09 in 6.2 mi ENE 5.8 mph - N/A   Mostly Cloudy
10:20 AM 59.0 °F 53.6 °F 82% 30.09 in 6.2 mi East 6.9 mph - N/A   Mostly Cloudy
10:50 AM 59.0 °F 51.8 °F 77% 30.09 in 6.2 mi East 6.9 mph - N/A   Mostly Cloudy
11:20 AM 59.0 °F 51.8 °F 77% 30.09 in 6.2 mi East 6.9 mph - N/A   Mostly Cloudy
11:50 AM 59.0 °F 51.8 °F 77% 30.09 in 6.2 mi East 5.8 mph - N/A   Mostly Cloudy
12:20 PM 59.0 °F 51.8 °F 77% 30.09 in 6.2 mi East 4.6 mph - N/A   Mostly Cloudy
12:50 PM 59.0 °F 53.6 °F 82% 30.09 in 6.2 mi SE 5.8 mph - N/A   Mostly Cloudy
1:20 PM 59.0 °F 55.4 °F 88% 30.09 in 6.2 mi West 5.8 mph - N/A Rain Light Rain
1:50 PM 59.0 °F 55.4 °F 88% 30.06 in 5.6 mi West 4.6 mph - N/A Rain Light Rain
2:20 PM 59.0 °F 53.6 °F 82% 30.06 in 6.2 mi SSE 5.8 mph - N/A Rain Light Rain
2:50 PM 59.0 °F 53.6 °F 82% 30.06 in 4.3 mi Variable 3.5 mph - N/A Rain Light Rain
3:20 PM 59.0 °F 53.6 °F 82% 30.06 in 6.2 mi Calm Calm - N/A Rain Light Rain
3:50 PM 59.0 °F 55.4 °F 88% 30.06 in 6.2 mi Variable 3.5 mph - N/A Rain Light Rain
4:20 PM 59.0 °F 55.4 °F 88% 30.06 in 6.2 mi Variable 3.5 mph - N/A Rain Light Rain
4:50 PM 59.0 °F 55.4 °F 88% 30.06 in 6.2 mi Variable 2.3 mph - N/A Rain Light Rain
5:20 PM 59.0 °F 55.4 °F 88% 30.06 in 6.2 mi Variable 3.5 mph - N/A Rain Light Rain
5:50 PM 59.0 °F 55.4 °F 88% 30.06 in 6.2 mi East 5.8 mph - N/A Rain Light Rain
6:20 PM 59.0 °F 55.4 °F 88% 30.06 in 6.2 mi ESE 5.8 mph - N/A Rain Light Rain
6:50 PM 60.8 °F 55.4 °F 82% 30.06 in 6.2 mi East 6.9 mph - N/A Rain Light Rain
7:20 PM 59.0 °F 55.4 °F 88% 30.06 in 6.2 mi East 6.9 mph - N/A   Mostly Cloudy
7:50 PM 59.0 °F 55.4 °F 88% 30.06 in 6.2 mi ENE 9.2 mph - N/A   Mostly Cloudy
8:20 PM 57.2 °F 53.6 °F 88% 30.06 in 6.2 mi ENE 10.4 mph - N/A   Mostly Cloudy
8:50 PM 57.2 °F 51.8 °F 82% 30.06 in 6.2 mi East 9.2 mph - N/A   Mostly Cloudy
9:20 PM 57.2 °F 51.8 °F 82% 30.06 in 6.2 mi East 8.1 mph - N/A   Scattered Clouds
9:50 PM 57.2 °F 50.0 °F 77% 30.06 in 6.2 mi ENE 8.1 mph 19.6 mph N/A   Scattered Clouds
10:20 PM 55.4 °F 50.0 °F 82% 30.06 in 6.2 mi East 8.1 mph - N/A   Partly Cloudy
10:50 PM 57.2 °F 50.0 °F 77% 30.06 in 6.2 mi East 5.8 mph - N/A   Mostly Cloudy
11:20 PM 57.2 °F 50.0 °F 77% 30.06 in 6.2 mi East 8.1 mph - N/A   Mostly Cloudy
11:50 PM 55.4 °F 50.0 °F 82% 30.06 in 6.2 mi ENE 6.9 mph - N/A   Mostly Cloudy